Location: New Town
(33.2710°N, 90.7534°W)
Time: 13:35:55
(UTC+00:00)

Explorer 11/Cluster Stage 4 - Pass Details

Date: 21 May 2021
Orbit: 467 x 1257 km, 28.8° (Epoch: 14 June)

Event Time Altitude Azimuth Distance (km) Brightness Sun altitude
Rises 02:14:26 0° 269° (W) 3,865 11.0 -14.2°
Reaches altitude 10° 02:17:06 10° 266° (W) 3,000 10.3 -14.7°
Maximum altitude 02:24:33 57° 190° (S) 1,413 7.7 -15.9°
Enters shadow 02:29:47 23° 121° (ESE) 2,372 8.4 -16.8°
Drops below altitude 10° 02:32:36 10° 114° (ESE) 3,224 - -17.2°
Sets 02:35:34 0° 110° (ESE) 4,170 - -17.7°
